Regional Weather Roundup
Issued by NWS

Home | Current Version | Previous Version | Text Only | Print | Product List | Glossary On
Versions: 1 2 3 4 5 6 7 8 9 10 11 12 13 14 15 16 17 18 19 20 21 22 23 24 25 26 27 28 29 30 31 32 33 34 35 36 37 38 39 40 41 42 43 44 45 46 47 48 49 50
000
ASUS42 KTBW 262117
RWRFL
FLORIDA REGIONAL WEATHER ROUNDUP
NATIONAL WEATHER SERVICE TAMPA BAY RUSKIN FL
500 PM EDT FRI MAY 26 2017

NOTE: "FAIR" INDICATES FEW OR NO CLOUDS BELOW 12,000 FEET WITH NO
SIGNIFICANT WEATHER AND/OR OBSTRUCTIONS TO VISIBILITY.

FLZ001>010-012>015-112-114-115-262200-
PANHANDLE FLORIDA

CITY           SKY/WX    TMP DP  RH WIND       PRES   REMARKS
PENSACOLA      SUNNY     82  60  47 SW9       30.03F
PENSACOLA NAS  SUNNY     80  60  50 S9        30.03F
MILTON NAS     SUNNY     81  60  48 S12G23    30.03
CRESTVIEW      SUNNY     84  57  39 S12G17    30.04F
DUKE FIELD     FAIR      82  57  42 S12       30.03F
VALPARAISO     MOSUNNY   80  59  48 S9        30.04F
MARY ESTHER    SUNNY     80  58  47 S8G17     30.03F
PANAMA CITY    FAIR      81  62  52 S12       30.03F
TYNDALL AFB    SUNNY     80  63  55 SW10      30.05F
APALACHICOLA   SUNNY     80  65  59 SW10      30.05F

STATION/POSITION SKY/WX   TEMP    WIND        PRES    WAVE   SWELL
                          AIR SEA DIR/SP/G            HT/PER HT/PER
                          (F)     (DEG/KT/KT) (MB)    (FT/S) (FT/S)
30.1N   87.6W              75 78  180/  8/ 10 1017.0F   2/ 7   2/ 7
29.2N   88.2W              76 79  160/  8/ 10 1017.3F   2/ 4   2/ 7
28.8N   86.0W              75 79  120/  4/  6 1017.7F   2/ 7   2/ 7
PANAMA CITY BEAC           76 80  240/  8/ 10 1018.0F
TOWER C                    75     190/  4/  6 1018.3F
28.5N   84.5W              76 83   CALM  /  2 1017.7F   2/ 8

$$
FLZ011-016>038-118-127-128-134-139-239-262200-
NORTH FLORIDA

CITY           SKY/WX    TMP DP  RH WIND       PRES   REMARKS
MARIANNA       SUNNY     87  57  35 VRB3      30.00F
TALLAHASSEE    MOSUNNY   86  60  41 S10       30.02F
PERRY          SUNNY     83  55  38 SW9       30.04F
CROSS CITY     SUNNY     84  59  42 W10       30.03S
LAKE CITY      FAIR      86  50  28 SW9       30.02S
GAINESVILLE    SUNNY     87  50  27 VRB6      30.01F
WILLISTON      SUNNY     90  54  29 SW3G13    30.01F
PALATKA        FAIR      88  54  31 W6        30.01F
MAYPORT NAS    MOSUNNY   82  58  43 SE12      30.00F
JACKSONVILLE   MOSUNNY   88  51  28 W10       29.99S
JAX NAS        MOSUNNY   88  49  25 W8        30.00F
FERNANDINA BEA FAIR      82  59  44 SE10      29.99S
ST AUGUSTINE   SUNNY     80  59  48 SE12      30.02F
PALM COAST     SUNNY     82  57  42 E10       30.01F

STATION/POSITION SKY/WX   TEMP    WIND        PRES    WAVE   SWELL
                          AIR SEA DIR/SP/G            HT/PER HT/PER
                          (F)     (DEG/KT/KT) (MB)    (FT/S) (FT/S)
SHELL POINT      NOT AVBL
KEATON BEACH               76     260/  9/ 10 1017.1F
CEDAR KEY                  77     290/  8/ 10 1017.4F
FERNANDINA                 81 79  120/  5/  9 1016.5F
30.7N   81.3W                 80                N/A     1/ 8
MAYPORT                    79 79  110/  6/ 10 1016.2F
31.4N   80.9W              76 78  180/ 10/ 10 1015.7F   1/ 8   2/ 8
ST AUGUSTINE               75 79  130/  8/  9 1017.3F

$$
FLZ040-043>046-052-053-057-058-063-144-262200-
INTERIOR CENTRAL FLORIDA

CITY           SKY/WX    TMP DP  RH WIND       PRES   REMARKS
OCALA          SUNNY     88  57  34 N12       30.01F
THE VILLAGES     N/A     91  48  22 SE5       29.91F
LEESBURG       SUNNY     89  55  31 VRB7      30.01F
SANFORD        SUNNY     89  47  23 NW12      30.00F
ORLANDO EXEC   SUNNY     89  54  30 NW10      30.00F
ORLANDO INTL   SUNNY     87  54  32 W8        30.00F
KISSIMMEE      SUNNY     91  53  27 NW10G16   30.01F
WINTER HAVEN   SUNNY     92  49  22 W8        30.01F
LAKELAND       SUNNY     90  55  31 W12       30.02R
BARTOW         SUNNY     90  55  31 W10       30.01S
OKEECHOBEE     MOSUNNY   88  64  45 W7        30.01F

$$
FLZ041-047-054-059-064-141-147-262200-
EAST CENTRAL FLORIDA

CITY           SKY/WX    TMP DP  RH WIND       PRES   REMARKS
ORMOND BEACH   SUNNY     79  55  44 E9        30.02F
DAYTONA BEACH  MOSUNNY   80  57  45 E12       30.02F
DELAND         SUNNY     88  52  29 NW8       30.00S
NEW SMYRNA BEA SUNNY     81  59  47 E12       30.04S
JFK SPACE CTR  SUNNY     80  54  40 E9        30.01F
CAPE CANAVERAL SUNNY     84  56  38 E9        30.01S
PATRICK AFB    SUNNY     79  60  51 E10       30.02S
MELBOURNE      SUNNY     81  60  48 E10       30.02S
VERO BEACH     SUNNY     80  60  50 E9        30.02F
FT PIERCE      SUNNY     83  64  52 E8        30.01F
STUART         SUNNY     82  66  57 E7        30.04S

STATION/POSITION SKY/WX   TEMP    WIND        PRES    WAVE   SWELL
                          AIR SEA DIR/SP/G            HT/PER HT/PER
                          (F)     (DEG/KT/KT) (MB)    (FT/S) (FT/S)
28.5N   80.2W              75      70/  6/  8 1017.8F   2/ 8   2/ 8
28.9N   78.5W              78 79  270/  8/ 12 1016.5S   3/ 6   3/ 6
TRIDENT PIER               78 78   80/  8/ 11 1018.1F
28.4N   80.5W                 75                N/A     1/ 8
27.5N   80.2W                 72                N/A     2/ 7

$$
FLZ050-056-061-142-242-148-248-149-249-151-251-155-255-
160-260-262200-
WEST CENTRAL FLORIDA

CITY           SKY/WX    TMP DP  RH WIND       PRES   REMARKS
CRYSTAL RIVER  FAIR      81  59  47 W10G16    30.04S
INVERNESS      FAIR      86  45  23 W5        30.03S
BROOKSVILLE    SUNNY     84  52  33 W14       30.05S
CLEARWATER AIR FAIR      79  61  53 NW6       30.04S
ST PETE CLEARW SUNNY     83  58  42 W7        30.04S
TAMPA INTL     MOSUNNY   84  59  42 W13       30.04S
TAMPA EXEC     SUNNY     90  52  27 NW9G16    30.03S
PLANT CITY     SUNNY     91  57  31 W10G21    30.04S
MACDILL AFB    SUNNY     85  60  43 NW9       30.03S
PETER O KNIGHT SUNNY     86  61  42 W9        30.04S
ST PETERSBURG  SUNNY     83  60  45 W10       30.02S
SARASOTA       SUNNY     84  64  50 W10       30.02F
VENICE         FAIR      82  68  61 W8        30.04F

STATION/POSITION SKY/WX   TEMP    WIND        PRES    WAVE   SWELL
                          AIR SEA DIR/SP/G            HT/PER HT/PER
                          (F)     (DEG/KT/KT) (MB)    (FT/S) (FT/S)
27.3N   84.2W                 80                N/A     2/ 7
CLEARWATER BEACH           78 82  280/  5/  8 1017.6F
MIDDLE TAMPA BAY           78     300/ 10/ 12 1017.6F
VENICE                     81 84  280/  6/  6 1016.7F

$$
FLZ066-069-070-075>078-162-262-165-265-262200-
SOUTHWEST FLORIDA AND KEYS

CITY           SKY/WX    TMP DP  RH WIND       PRES   REMARKS
PUNTA GORDA    SUNNY     88  69  53 SW12      30.03S
FT MYERS       SUNNY     90  71  53 NW6       30.01S HX  96
SOUTHWEST INTL SUNNY     89  69  51 W9        30.01S
NAPLES         SUNNY     88  73  61 W10       30.01S HX  95
MARCO ISLAND   SUNNY     90  72  55 SW8       30.01S HX  96
IMMOKALEE      PTSUNNY   91  70  49 NW9       30.00F HX  97
MARATHON       MOSUNNY   90  79  70 VRB5      30.00F HX 106
KEY WEST NAS   PTSUNNY   89  79  72 NW6       30.00F HX 104
KEY WEST INTL  MOSUNNY   85  78  80 S3        30.01F HX  96

STATION/POSITION SKY/WX   TEMP    WIND        PRES    WAVE   SWELL
                          AIR SEA DIR/SP/G            HT/PER HT/PER
                          (F)     (DEG/KT/KT) (MB)    (FT/S) (FT/S)
NAPLES                        85  280/  8/ 10 1016.4R
DRY TORTUGAS               84      70/  4/  4 1016.5F
SAND KEY                   84     120/  2/  4 1016.9F
LONG KEY                   85 87  220/  4/  4 1016.4F
MOLASSES REEF              87 82  190/  2/  2 1016.6F

$$
FLZ067-068-071>074-168-172>174-262200-
SOUTHEAST FLORIDA

CITY           SKY/WX    TMP DP  RH WIND       PRES   REMARKS
W PALM BEACH   MOSUNNY   82  67  60 E9        30.03S
BOCA RATON     SUNNY     84  72  65 E8        30.02
FT LAUDER-EXEC MOSUNNY   89  70  53 E12       30.01S
FT LAUDERDALE  MOSUNNY   84  73  69 E10       30.00F
POMPANO BEACH  MOSUNNY   84  72  67 NE10      30.02S
PEMBROKE PINES MOSUNNY   88  72  58 E10       30.01F
OPA LOCKA      SUNNY     87  76  69 E12       30.00F HX  97
MIAMI          CLOUDY    87  74  64 SE10      30.01S HX  95
WEST KENDALL   LGT RAIN  83  77  82 SE8       30.01F
HOMESTEAD      LGT RAIN  82  81  94 E6        30.01R HX  95

STATION/POSITION SKY/WX   TEMP    WIND        PRES    WAVE   SWELL
                          AIR SEA DIR/SP/G            HT/PER HT/PER
                          (F)     (DEG/KT/KT) (MB)    (FT/S) (FT/S)
PORT EVERGLADES            81      70/  9/ 11 1016.5F
VIRGINIA KEY               82 85   60/  7/ 10 1015.7F
LAKE WORTH                 79 83              1017.5F
FOWEY ROCKS                81 83   70/  7/  8 1017.1S
SETTLEMENT POINT           79      10/  8/  9 1017.0F

$$




USA.gov is the U.S. government's official web portal to all federal, state and local government web resources and services.